Regional Weather Roundup
Issued by NWS Cleveland, OH

Home | Current Version | Previous Version | Text Only | Print | Product List | Glossary Off
Versions: 1 2 3 4 5 6 7 8 9 10 11 12 13 14 15 16 17 18 19 20 21 22 23 24 25 26 27 28 29 30 31 32 33 34 35 36 37 38 39 40 41 42 43 44 45 46 47 48 49 50

000
ASUS41 KCLE 141702
RWRCLE
OHIO REGIONAL WEATHER ROUNDUP
NATIONAL WEATHER SERVICE CLEVELAND, OH
1200 PM EST SUN FEB 14 2016

NOTE: "FAIR" INDICATES FEW OR NO CLOUDS BELOW 12,000 FEET WITH NO
SIGNIFICANT WEATHER AND/OR OBSTRUCTIONS TO VISIBILITY.

OHZ001>008-015>018-024>027-034-035-043-044-141800-
   NORTHWEST OHIO

CITY           SKY/WX    TMP DP  RH WIND       PRES   REMARKS
DEFIANCE       MOSUNNY   18   5  57 SE9       30.36F WCI   7
FINDLAY        CLOUDY    18   6  59 S14       30.37F WCI   4
TOLEDO EXPRESS CLOUDY    16   2  54 SE10      30.39F WCI   4
TOLEDO EXEC    CLOUDY    18   2  49 SE13      30.42F WCI   5
LIMA           SUNNY     18   6  59 SE14      30.34F WCI   4
$$

OHZ009>014-019>023-028>033-038-089-141800-
   NORTHEAST OHIO

CITY           SKY/WX    TMP DP  RH WIND       PRES   REMARKS
CLE-HOPKINS    PTSUNNY   15   1  53 E7        30.47F WCI   5
CLE-LAKEFRONT  CLOUDY    16   2  54 S7        30.46F WCI   6
CUY CO. ARPT   PTSUNNY   18   3  53 SW8       30.45F WCI   7
LORAIN-ELYRIA  SUNNY     13   1  59 S12       30.44F WCI  -1
ASHTABULA      CLOUDY    12   1  61 SE8       30.46S WCI   0
AKRON-CANTON   MOSUNNY   13  -1  54 SE8       30.41F WCI   2
WOOSTER        SUNNY     12  -1  56 S10       30.42F WCI  -1
MANSFIELD      CLOUDY    14   2  58 SE13      30.37F WCI   0
YOUNGSTOWN     CLOUDY    12   1  61 VRB5      30.44F WCI   4
$$

OHZ042-051>053-060>062-070>072-077>081-141800-
  SOUTHWEST OHIO

CITY           SKY/WX    TMP DP  RH WIND       PRES   REMARKS
CINC-COVINGTON CLOUDY    18   5  57 SE12      30.35F WCI   5
CINC-LUNKEN    CLOUDY    19   4  51 SE10      30.40F WCI   7
HAMILTON       CLOUDY    20   4  50 VRB6      30.38F WCI  12
DAYTON         CLOUDY    17   5  59 SE15      30.34F WCI   2
WRIGHT-PAT AFB PTSUNNY   17   2  52 SE13      30.35F WCI   3
DAYTON GENERAL CLOUDY    17   1  49 SE12      30.34F WCI   4
WILMINGTON     MOSUNNY   15   3  59 SE12      30.34F WCI   2
$$

OHZ036-037-039>041-045>050-054>059-063>069-073>076-082>088-141800-
  CENTRAL AND SOUTHEAST OHIO

CITY           SKY/WX    TMP DP  RH WIND       PRES   REMARKS
COLUMBUS       MOSUNNY   15   3  59 E12       30.41F WCI   2
OSU AIRPORT    SUNNY     15   4  61 SE12      30.39F WCI   2
BOLTON FIELD   NOT AVBL
RICKENBACK AFB NOT AVBL
NEWARK         SUNNY     17   3  54 S13       30.41F WCI   4
MARION         MOSUNNY   17   3  54 S15       30.39F WCI   2
LANCASTER      SUNNY     15   3  59 SE9       30.41F WCI   3
ZANESVILLE     SUNNY     17   2  51 SE9       30.43F WCI   6
NEW PHILLY     SUNNY     14  32 100 VRB7      30.45F WCI   4
$$



USA.gov is the U.S. government's official web portal to all federal, state and local government web resources and services.